Private Wetterstation Sandau
Wetterdaten: Dienstag, 25.12.2012
Datum Zeit Temp. A. Feuchte A. Luftdruck Regen Wind Richtung Richtung Taupunkt Windchill
25.12.2012 00:01 7,9 C 96 % 999,8 hPa 0,0 l/m 20,5 km/h (4 Bft) SW 225 7,3 C 4,7 C
25.12.2012 00:06 7,9 C 95 % 999,7 hPa 0,0 l/m 9,7 km/h (2 Bft) S-SW 202 7,1 C 6,2 C
25.12.2012 00:11 8,1 C 95 % 999,8 hPa 0,0 l/m 20,2 km/h (4 Bft) W 270 7,3 C 5,0 C
25.12.2012 00:16 8,3 C 95 % 999,8 hPa 0,0 l/m 29,2 km/h (5 Bft) W-SW 247 7,5 C 4,4 C
25.12.2012 00:21 8,4 C 93 % 999,8 hPa 0,0 l/m 14,8 km/h (3 Bft) W-SW 247 7,3 C 6,0 C
25.12.2012 00:26 8,4 C 92 % 999,7 hPa 0,0 l/m 13,7 km/h (3 Bft) S 180 7,2 C 6,1 C
25.12.2012 00:31 8,4 C 91 % 999,7 hPa 0,0 l/m 13,3 km/h (3 Bft) S-SW 202 7,0 C 6,2 C
25.12.2012 00:36 8,4 C 91 % 999,5 hPa 0,0 l/m 10,8 km/h (2 Bft) SW 225 7,0 C 6,6 C
25.12.2012 00:41 8,4 C 90 % 999,7 hPa 0,0 l/m 11,2 km/h (2 Bft) S-SW 202 6,9 C 6,5 C
25.12.2012 00:46 8,4 C 89 % 999,4 hPa 0,0 l/m 8,3 km/h (2 Bft) SW 225 6,7 C 7,1 C
25.12.2012 00:51 8,4 C 89 % 999,4 hPa 0,0 l/m 13,7 km/h (3 Bft) SW 225 6,7 C 6,1 C
25.12.2012 00:56 8,3 C 89 % 999,4 hPa 0,0 l/m 11,9 km/h (2 Bft) W-SW 247 6,6 C 6,3 C
25.12.2012 01:01 8,3 C 89 % 999,5 hPa 0,0 l/m 15,5 km/h (3 Bft) S 180 6,6 C 5,8 C
25.12.2012 01:06 8,3 C 89 % 999,5 hPa 0,0 l/m 25,6 km/h (4 Bft) SW 225 6,6 C 4,7 C
25.12.2012 01:11 8,3 C 89 % 999,5 hPa 0,0 l/m 23,4 km/h (4 Bft) S 180 6,6 C 4,9 C
25.12.2012 01:16 8,3 C 88 % 999,4 hPa 0,0 l/m 13,0 km/h (3 Bft) S 180 6,4 C 6,1 C
25.12.2012 01:21 8,4 C 88 % 999,6 hPa 0,0 l/m 9,4 km/h (2 Bft) W-SW 247 6,5 C 6,8 C
25.12.2012 01:26 8,4 C 87 % 999,8 hPa 0,0 l/m 7,2 km/h (2 Bft) S-SW 202 6,4 C 7,3 C
25.12.2012 01:31 8,4 C 87 % 999,9 hPa 0,0 l/m 15,8 km/h (3 Bft) SW 225 6,4 C 5,8 C
25.12.2012 01:36 8,3 C 87 % 999,7 hPa 0,0 l/m 11,2 km/h (2 Bft) W 270 6,3 C 6,4 C
25.12.2012 01:41 8,3 C 87 % 999,7 hPa 0,0 l/m 11,2 km/h (2 Bft) W-SW 247 6,3 C 6,4 C
25.12.2012 01:46 8,3 C 87 % 999,7 hPa 0,0 l/m 20,9 km/h (4 Bft) W-SW 247 6,3 C 5,1 C
25.12.2012 01:51 8,3 C 87 % 999,7 hPa 0,0 l/m 11,5 km/h (2 Bft) S-SW 202 6,3 C 6,3 C
25.12.2012 01:56 8,3 C 87 % 999,5 hPa 0,0 l/m 10,4 km/h (2 Bft) S 180 6,3 C 6,5 C
25.12.2012 02:01 8,2 C 87 % 999,7 hPa 0,0 l/m 9,4 km/h (2 Bft) SW 225 6,2 C 6,6 C
25.12.2012 02:06 8,2 C 87 % 999,6 hPa 0,0 l/m 8,6 km/h (2 Bft) W 270 6,2 C 6,8 C
25.12.2012 02:11 8,2 C 87 % 999,8 hPa 0,0 l/m 9,0 km/h (2 Bft) W-SW 247 6,2 C 6,7 C
25.12.2012 02:16 8,2 C 87 % 999,7 hPa 0,0 l/m 6,5 km/h (2 Bft) S 180 6,2 C 7,3 C
25.12.2012 02:21 8,2 C 87 % 999,7 hPa 0,0 l/m 15,1 km/h (3 Bft) SW 225 6,2 C 5,7 C
25.12.2012 02:26 8,2 C 87 % 999,6 hPa 0,0 l/m 6,1 km/h (2 Bft) SW 225 6,2 C 7,4 C
25.12.2012 02:31 8,2 C 87 % 999,6 hPa 0,0 l/m 11,9 km/h (2 Bft) S 180 6,2 C 6,2 C
25.12.2012 02:36 8,2 C 87 % 999,6 hPa 0,0 l/m 9,4 km/h (2 Bft) W-SW 247 6,2 C 6,6 C
25.12.2012 02:41 8,2 C 87 % 999,7 hPa 0,0 l/m 9,7 km/h (2 Bft) SW 225 6,2 C 6,5 C
25.12.2012 02:46 8,2 C 87 % 999,6 hPa 0,0 l/m 11,2 km/h (2 Bft) SW 225 6,2 C 6,3 C
25.12.2012 02:51 8,1 C 87 % 999,5 hPa 0,0 l/m 10,8 km/h (2 Bft) W 270 6,1 C 6,2 C
25.12.2012 02:56 8,2 C 87 % 999,6 hPa 0,0 l/m 8,6 km/h (2 Bft) S-SW 202 6,2 C 6,8 C
25.12.2012 03:01 8,4 C 87 % 999,7 hPa 0,0 l/m 16,6 km/h (3 Bft) SW 225 6,4 C 5,7 C
25.12.2012 03:06 8,5 C 87 % 999,8 hPa 0,0 l/m 14,4 km/h (3 Bft) W-SW 247 6,5 C 6,1 C
25.12.2012 03:11 8,6 C 87 % 999,8 hPa 0,0 l/m 16,9 km/h (3 Bft) SW 225 6,6 C 6,0 C
25.12.2012 03:16 8,8 C 87 % 999,8 hPa 0,0 l/m 17,6 km/h (3 Bft) W-SW 247 6,8 C 6,1 C
25.12.2012 03:21 8,9 C 86 % 999,4 hPa 0,0 l/m 9,7 km/h (2 Bft) S-SW 202 6,7 C 7,4 C
25.12.2012 03:26 8,9 C 86 % 999,4 hPa 0,0 l/m 11,2 km/h (2 Bft) S-SW 202 6,7 C 7,1 C
25.12.2012 03:31 9,0 C 86 % 999,4 hPa 0,0 l/m 14,8 km/h (3 Bft) S-SW 202 6,8 C 6,7 C
25.12.2012 03:36 9,1 C 85 % 999,4 hPa 0,0 l/m 25,2 km/h (4 Bft) W-NW 292 6,7 C 5,8 C
25.12.2012 03:41 9,1 C 86 % 999,5 hPa 0,0 l/m 29,5 km/h (5 Bft) W-SW 247 6,9 C 5,4 C
25.12.2012 03:46 9,3 C 85 % 999,5 hPa 0,0 l/m 15,5 km/h (3 Bft) W-SW 247 6,9 C 7,0 C
25.12.2012 03:51 9,3 C 85 % 999,4 hPa 0,0 l/m 12,6 km/h (3 Bft) W-SW 247 6,9 C 7,4 C
25.12.2012 03:56 9,3 C 85 % 999,3 hPa 0,0 l/m 12,2 km/h (2 Bft) S-SW 202 6,9 C 7,4 C
25.12.2012 04:01 9,3 C 85 % 999,3 hPa 0,0 l/m 7,9 km/h (2 Bft) S-SW 202 6,9 C 8,2 C
25.12.2012 04:06 9,3 C 85 % 999,3 hPa 0,0 l/m 16,9 km/h (3 Bft) W-SW 247 6,9 C 6,8 C
25.12.2012 04:11 9,4 C 85 % 999,3 hPa 0,0 l/m 24,5 km/h (4 Bft) SW 225 7,0 C 6,2 C
25.12.2012 04:16 9,4 C 84 % 999,1 hPa 0,0 l/m 19,8 km/h (3 Bft) W-SW 247 6,8 C 6,6 C
25.12.2012 04:21 9,4 C 84 % 998,8 hPa 0,0 l/m 12,2 km/h (2 Bft) SW 225 6,8 C 7,6 C
25.12.2012 04:26 9,4 C 84 % 998,8 hPa 0,0 l/m 11,2 km/h (2 Bft) SW 225 6,8 C 7,7 C
25.12.2012 04:31 9,5 C 84 % 998,7 hPa 0,0 l/m 16,6 km/h (3 Bft) W-SW 247 6,9 C 7,1 C
25.12.2012 04:36 9,5 C 84 % 998,8 hPa 0,0 l/m 12,2 km/h (2 Bft) SW 225 6,9 C 7,7 C
25.12.2012 04:41 9,4 C 84 % 999,0 hPa 0,0 l/m 20,9 km/h (4 Bft) SW 225 6,8 C 6,5 C
25.12.2012 04:46 9,5 C 84 % 998,7 hPa 0,0 l/m 16,6 km/h (3 Bft) SW 225 6,9 C 7,1 C
25.12.2012 04:51 9,5 C 84 % 998,7 hPa 0,0 l/m 20,9 km/h (4 Bft) S-SO 157 6,9 C 6,7 C
25.12.2012 04:56 9,5 C 84 % 998,7 hPa 0,0 l/m 9,4 km/h (2 Bft) S 180 6,9 C 8,1 C
25.12.2012 05:01 9,5 C 84 % 998,7 hPa 0,0 l/m 9,4 km/h (2 Bft) SW 225 6,9 C 8,1 C
25.12.2012 05:06 9,5 C 84 % 998,7 hPa 0,0 l/m 11,5 km/h (2 Bft) SW 225 6,9 C 7,8 C
25.12.2012 05:11 9,5 C 84 % 998,7 hPa 0,0 l/m 3,6 km/h (1 Bft) S-SW 202 6,9 C 9,5 C
25.12.2012 05:16 9,4 C 84 % 998,8 hPa 0,0 l/m 7,6 km/h (2 Bft) S-SW 202 6,8 C 8,4 C
25.12.2012 05:21 9,4 C 84 % 998,7 hPa 0,0 l/m 13,0 km/h (3 Bft) S-SW 202 6,8 C 7,4 C
25.12.2012 05:26 9,3 C 84 % 998,4 hPa 0,0 l/m 5,0 km/h (1 Bft) SW 225 6,7 C 9,0 C
25.12.2012 05:31 9,2 C 84 % 998,4 hPa 0,0 l/m 4,0 km/h (1 Bft) S-SO 157 6,6 C 9,2 C
25.12.2012 05:36 8,9 C 84 % 998,5 hPa 0,0 l/m 5,0 km/h (1 Bft) S-SW 202 6,3 C 8,5 C
25.12.2012 05:41 8,7 C 85 % 998,5 hPa 0,0 l/m 7,9 km/h (2 Bft) S 180 6,3 C 7,5 C
25.12.2012 05:46 8,5 C 85 % 998,6 hPa 0,0 l/m 7,6 km/h (2 Bft) S 180 6,1 C 7,3 C
25.12.2012 05:51 8,3 C 85 % 998,6 hPa 0,0 l/m 4,3 km/h (1 Bft) SW 225 5,9 C 8,3 C
25.12.2012 05:56 8,2 C 86 % 998,6 hPa 0,0 l/m 10,1 km/h (2 Bft) S 180 6,0 C 6,5 C
25.12.2012 06:01 8,1 C 86 % 998,7 hPa 0,0 l/m 6,5 km/h (2 Bft) SW 225 5,9 C 7,1 C
25.12.2012 06:06 8,0 C 86 % 998,6 hPa 0,0 l/m 4,0 km/h (1 Bft) S-SW 202 5,8 C 8,0 C
25.12.2012 06:11 8,1 C 86 % 998,4 hPa 0,0 l/m 5,0 km/h (1 Bft) S 180 5,9 C 7,6 C
25.12.2012 06:16 8,1 C 86 % 998,3 hPa 0,0 l/m 4,3 km/h (1 Bft) S-SW 202 5,9 C 8,1 C
25.12.2012 06:21 8,1 C 86 % 998,3 hPa 0,0 l/m 6,8 km/h (2 Bft) SW 225 5,9 C 7,1 C
25.12.2012 06:26 8,1 C 86 % 998,2 hPa 0,0 l/m 4,7 km/h (1 Bft) SW 225 5,9 C 7,7 C
25.12.2012 06:31 8,1 C 86 % 998,0 hPa 0,0 l/m 3,6 km/h (1 Bft) S 180 5,9 C 8,1 C
25.12.2012 06:36 8,2 C 86 % 998,0 hPa 0,0 l/m 9,4 km/h (2 Bft) S 180 6,0 C 6,6 C
25.12.2012 06:41 8,2 C 86 % 998,0 hPa 0,0 l/m 7,9 km/h (2 Bft) SO 135 6,0 C 6,9 C
25.12.2012 06:46 8,1 C 86 % 997,9 hPa 0,0 l/m 13,3 km/h (3 Bft) S-SW 202 5,9 C 5,8 C
25.12.2012 06:51 7,9 C 86 % 998,0 hPa 0,0 l/m 5,4 km/h (1 Bft) S 180 5,7 C 7,2 C
25.12.2012 06:56 7,8 C 86 % 998,0 hPa 0,0 l/m 12,6 km/h (3 Bft) S-SW 202 5,6 C 5,6 C
25.12.2012 07:01 7,8 C 86 % 998,0 hPa 0,0 l/m 4,0 km/h (1 Bft) S-SW 202 5,6 C 7,8 C
25.12.2012 07:06 7,6 C 86 % 997,9 hPa 0,0 l/m 11,5 km/h (2 Bft) SW 225 5,4 C 5,5 C
25.12.2012 07:11 7,5 C 87 % 997,9 hPa 0,0 l/m 10,4 km/h (2 Bft) S 180 5,5 C 5,6 C
25.12.2012 07:16 7,4 C 87 % 997,9 hPa 0,0 l/m 7,2 km/h (2 Bft) S-SW 202 5,4 C 6,1 C
25.12.2012 07:21 7,4 C 87 % 997,6 hPa 0,0 l/m 10,8 km/h (2 Bft) S-SW 202 5,4 C 5,4 C
25.12.2012 07:26 7,4 C 88 % 997,6 hPa 0,0 l/m 18,0 km/h (3 Bft) S-SW 202 5,5 C 4,3 C
25.12.2012 07:31 7,5 C 88 % 997,6 hPa 0,0 l/m 8,3 km/h (2 Bft) S-SW 202 5,6 C 6,0 C
25.12.2012 07:36 7,6 C 88 % 997,6 hPa 0,0 l/m 9,4 km/h (2 Bft) W-SW 247 5,7 C 5,9 C
25.12.2012 07:41 7,6 C 88 % 997,5 hPa 0,0 l/m 10,8 km/h (2 Bft) SW 225 5,7 C 5,6 C
25.12.2012 07:46 7,8 C 88 % 997,5 hPa 0,0 l/m 7,9 km/h (2 Bft) S-SO 157 5,9 C 6,4 C
25.12.2012 07:51 7,8 C 88 % 997,5 hPa 0,0 l/m 14,8 km/h (3 Bft) S 180 5,9 C 5,2 C
25.12.2012 07:56 7,9 C 88 % 997,5 hPa 0,0 l/m 17,6 km/h (3 Bft) S 180 6,0 C 5,0 C
25.12.2012 08:01 7,9 C 87 % 997,4 hPa 0,0 l/m 10,1 km/h (2 Bft) S-SW 202 5,9 C 6,1 C
25.12.2012 08:06 7,9 C 87 % 997,3 hPa 0,0 l/m 15,1 km/h (3 Bft) SW 225 5,9 C 5,3 C
25.12.2012 08:11 8,0 C 87 % 997,1 hPa 0,0 l/m 12,6 km/h (3 Bft) SW 225 6,0 C 5,8 C
25.12.2012 08:16 8,1 C 87 % 997,1 hPa 0,0 l/m 13,0 km/h (3 Bft) W-SW 247 6,1 C 5,9 C
25.12.2012 08:21 8,1 C 87 % 997,1 hPa 0,0 l/m 6,1 km/h (2 Bft) W 270 6,1 C 7,3 C
25.12.2012 08:26 8,1 C 87 % 997,1 hPa 0,0 l/m 15,5 km/h (3 Bft) S-SW 202 6,1 C 5,5 C
25.12.2012 08:31 8,1 C 87 % 997,2 hPa 0,0 l/m 15,1 km/h (3 Bft) S 180 6,1 C 5,6 C
25.12.2012 08:36 8,1 C 87 % 996,9 hPa 0,0 l/m 11,9 km/h (2 Bft) S 180 6,1 C 6,0 C
25.12.2012 08:41 8,1 C 87 % 997,1 hPa 0,0 l/m 13,7 km/h (3 Bft) S 180 6,1 C 5,8 C
25.12.2012 08:46 8,1 C 86 % 997,0 hPa 0,0 l/m 8,3 km/h (2 Bft) S 180 5,9 C 6,7 C
25.12.2012 08:51 8,1 C 86 % 996,8 hPa 0,0 l/m 12,2 km/h (2 Bft) SO 135 5,9 C 6,0 C
25.12.2012 08:56 8,2 C 86 % 997,0 hPa 0,0 l/m 10,1 km/h (2 Bft) S-SO 157 6,0 C 6,5 C
25.12.2012 09:01 8,2 C 86 % 997,2 hPa 0,0 l/m 9,0 km/h (2 Bft) S-SO 157 6,0 C 6,7 C
25.12.2012 09:06 8,3 C 86 % 997,0 hPa 0,0 l/m 11,9 km/h (2 Bft) S 180 6,1 C 6,3 C
25.12.2012 09:11 8,3 C 86 % 997,2 hPa 0,0 l/m 10,4 km/h (2 Bft) S-SW 202 6,1 C 6,5 C
25.12.2012 09:16 8,4 C 86 % 997,0 hPa 0,0 l/m 9,4 km/h (2 Bft) S 180 6,2 C 6,8 C
25.12.2012 09:21 8,5 C 85 % 997,0 hPa 0,0 l/m 10,1 km/h (2 Bft) S-SO 157 6,1 C 6,8 C
25.12.2012 09:26 8,6 C 85 % 997,0 hPa 0,0 l/m 13,7 km/h (3 Bft) S-SO 157 6,2 C 6,4 C
25.12.2012 09:31 8,8 C 85 % 997,1 hPa 0,0 l/m 18,0 km/h (3 Bft) W-SW 247 6,4 C 6,1 C
25.12.2012 09:36 9,0 C 84 % 997,1 hPa 0,0 l/m 12,2 km/h (2 Bft) S 180 6,4 C 7,1 C
25.12.2012 09:41 9,2 C 84 % 997,2 hPa 0,0 l/m 11,5 km/h (2 Bft) W-SW 247 6,6 C 7,4 C
25.12.2012 09:46 9,3 C 83 % 997,4 hPa 0,0 l/m 8,6 km/h (2 Bft) S-SW 202 6,6 C 8,1 C
25.12.2012 09:51 9,4 C 82 % 997,2 hPa 0,0 l/m 11,5 km/h (2 Bft) SW 225 6,5 C 7,7 C
25.12.2012 09:56 9,5 C 82 % 997,2 hPa 0,0 l/m 8,3 km/h (2 Bft) W-SW 247 6,6 C 8,4 C
25.12.2012 10:01 9,6 C 81 % 997,2 hPa 0,0 l/m 16,2 km/h (3 Bft) SO 135 6,5 C 7,3 C
25.12.2012 10:06 9,6 C 81 % 997,2 hPa 0,0 l/m 17,3 km/h (3 Bft) W-SW 247 6,5 C 7,2 C
25.12.2012 10:11 9,8 C 80 % 997,3 hPa 0,0 l/m 19,4 km/h (3 Bft) S-SW 202 6,5 C 7,2 C
25.12.2012 10:16 9,8 C 80 % 997,2 hPa 0,0 l/m 13,0 km/h (3 Bft) SO 135 6,5 C 7,9 C
25.12.2012 10:21 9,9 C 79 % 997,3 hPa 0,0 l/m 18,0 km/h (3 Bft) W-SW 247 6,4 C 7,5 C
25.12.2012 10:26 9,9 C 79 % 997,1 hPa 0,0 l/m 5,8 km/h (2 Bft) SW 225 6,4 C 9,4 C
25.12.2012 10:31 9,9 C 79 % 997,0 hPa 0,0 l/m 16,9 km/h (3 Bft) S-SO 157 6,4 C 7,6 C
25.12.2012 10:36 9,9 C 79 % 997,2 hPa 0,0 l/m 9,4 km/h (2 Bft) S 180 6,4 C 8,6 C
25.12.2012 10:41 9,9 C 79 % 997,3 hPa 0,0 l/m 16,6 km/h (3 Bft) S 180 6,4 C 7,6 C
25.12.2012 10:46 9,9 C 79 % 997,5 hPa 0,0 l/m 10,4 km/h (2 Bft) W-SW 247 6,4 C 8,4 C
25.12.2012 10:51 9,9 C 79 % 997,5 hPa 0,0 l/m 17,6 km/h (3 Bft) W-SW 247 6,4 C 7,5 C
25.12.2012 10:56 10,1 C 78 % 997,5 hPa 0,0 l/m 13,3 km/h (3 Bft) S-SW 202 6,4 C 10,1 C
25.12.2012 11:01 10,2 C 78 % 997,4 hPa 0,0 l/m 25,9 km/h (4 Bft) W-SW 247 6,5 C 10,2 C
25.12.2012 11:06 10,3 C 77 % 997,4 hPa 0,0 l/m 21,2 km/h (4 Bft) W-SW 247 6,4 C 10,3 C
25.12.2012 11:11 10,4 C 77 % 997,2 hPa 0,0 l/m 11,5 km/h (2 Bft) SW 225 6,5 C 10,4 C
25.12.2012 11:16 10,4 C 76 % 997,2 hPa 0,0 l/m 13,3 km/h (3 Bft) W-NW 292 6,4 C 10,4 C
25.12.2012 11:21 10,5 C 76 % 997,1 hPa 0,0 l/m 15,8 km/h (3 Bft) SW 225 6,5 C 10,5 C
25.12.2012 11:26 10,5 C 76 % 997,0 hPa 0,0 l/m 15,1 km/h (3 Bft) S-SW 202 6,5 C 10,5 C
25.12.2012 11:31 10,6 C 76 % 997,1 hPa 0,0 l/m 18,7 km/h (3 Bft) SW 225 6,5 C 10,6 C
25.12.2012 11:36 10,6 C 76 % 997,2 hPa 0,0 l/m 19,1 km/h (3 Bft) SW 225 6,5 C 10,6 C
25.12.2012 11:41 10,6 C 76 % 997,2 hPa 0,0 l/m 21,6 km/h (4 Bft) W-SW 247 6,5 C 10,6 C
25.12.2012 11:46 10,6 C 76 % 997,0 hPa 0,0 l/m 9,7 km/h (2 Bft) S-SW 202 6,5 C 10,6 C
25.12.2012 11:51 10,7 C 76 % 997,2 hPa 0,0 l/m 15,1 km/h (3 Bft) S-SW 202 6,6 C 10,7 C
25.12.2012 11:56 10,7 C 76 % 997,2 hPa 0,0 l/m 14,8 km/h (3 Bft) S-SW 202 6,6 C 10,7 C
25.12.2012 12:01 10,8 C 76 % 997,2 hPa 0,0 l/m 20,2 km/h (4 Bft) SW 225 6,7 C 10,8 C
25.12.2012 12:06 10,7 C 76 % 997,1 hPa 0,0 l/m 11,5 km/h (2 Bft) S-SW 202 6,6 C 10,7 C
25.12.2012 12:11 10,6 C 76 % 997,1 hPa 0,0 l/m 12,2 km/h (2 Bft) W-SW 247 6,5 C 10,6 C
25.12.2012 12:16 10,6 C 77 % 997,1 hPa 0,0 l/m 7,9 km/h (2 Bft) S 180 6,7 C 10,6 C
25.12.2012 12:21 10,6 C 77 % 997,2 hPa 0,0 l/m 17,6 km/h (3 Bft) S-SW 202 6,7 C 10,6 C
25.12.2012 12:26 10,6 C 77 % 997,3 hPa 0,0 l/m 9,7 km/h (2 Bft) W-SW 247 6,7 C 10,6 C
25.12.2012 12:31 10,6 C 77 % 997,3 hPa 0,0 l/m 10,4 km/h (2 Bft) W 270 6,7 C 10,6 C
25.12.2012 12:36 10,7 C 77 % 997,2 hPa 0,0 l/m 13,0 km/h (3 Bft) W-SW 247 6,8 C 10,7 C
25.12.2012 12:41 10,8 C 77 % 997,3 hPa 0,0 l/m 19,8 km/h (3 Bft) W 270 6,9 C 10,8 C
25.12.2012 12:46 10,8 C 77 % 997,4 hPa 0,0 l/m 8,6 km/h (2 Bft) W-NW 292 6,9 C 10,8 C
25.12.2012 12:51 10,8 C 78 % 997,6 hPa 0,0 l/m 16,6 km/h (3 Bft) W 270 7,1 C 10,8 C
25.12.2012 12:56 10,8 C 78 % 997,7 hPa 0,0 l/m 34,2 km/h (5 Bft) W 270 7,1 C 10,8 C
25.12.2012 13:01 10,6 C 79 % 997,7 hPa 0,0 l/m 30,6 km/h (5 Bft) W-SW 247 7,1 C 10,6 C
25.12.2012 13:06 10,4 C 81 % 997,8 hPa 0,0 l/m 24,1 km/h (4 Bft) W 270 7,3 C 10,4 C
25.12.2012 13:11 10,2 C 81 % 997,7 hPa 0,0 l/m 10,1 km/h (2 Bft) W 270 7,1 C 10,2 C
25.12.2012 13:16 10,1 C 81 % 997,8 hPa 0,0 l/m 14,4 km/h (3 Bft) W 270 7,0 C 10,1 C
25.12.2012 13:21 9,9 C 81 % 998,0 hPa 0,0 l/m 23,0 km/h (4 Bft) W-SW 247 6,8 C 7,0 C
25.12.2012 13:26 9,9 C 82 % 998,0 hPa 0,0 l/m 11,5 km/h (2 Bft) W-SW 247 7,0 C 8,3 C
25.12.2012 13:31 9,8 C 82 % 998,1 hPa 0,0 l/m 19,4 km/h (3 Bft) W 270 6,9 C 7,2 C
25.12.2012 13:36 9,6 C 83 % 998,0 hPa 0,0 l/m 11,9 km/h (2 Bft) W-SW 247 6,9 C 7,8 C
25.12.2012 13:41 9,5 C 83 % 998,1 hPa 0,0 l/m 13,7 km/h (3 Bft) W 270 6,8 C 7,5 C
25.12.2012 13:46 9,5 C 83 % 998,1 hPa 0,0 l/m 15,8 km/h (3 Bft) W-SW 247 6,8 C 7,2 C
25.12.2012 13:51 9,4 C 83 % 998,2 hPa 0,0 l/m 13,3 km/h (3 Bft) W 270 6,7 C 7,4 C
25.12.2012 13:56 9,4 C 83 % 998,2 hPa 0,0 l/m 8,3 km/h (2 Bft) W 270 6,7 C 8,2 C
25.12.2012 14:01 9,4 C 83 % 998,2 hPa 0,0 l/m 7,9 km/h (2 Bft) S 180 6,7 C 8,3 C
25.12.2012 14:06 9,3 C 83 % 998,3 hPa 0,0 l/m 7,2 km/h (2 Bft) W 270 6,6 C 8,4 C
25.12.2012 14:11 9,3 C 83 % 998,3 hPa 0,0 l/m 7,6 km/h (2 Bft) W 270 6,6 C 8,3 C
25.12.2012 14:16 9,3 C 83 % 998,4 hPa 0,0 l/m 6,8 km/h (2 Bft) S-SW 202 6,6 C 8,5 C
25.12.2012 14:21 9,3 C 84 % 998,5 hPa 0,0 l/m 5,4 km/h (1 Bft) W-NW 292 6,7 C 8,8 C
25.12.2012 14:26 9,2 C 84 % 998,4 hPa 0,0 l/m 9,0 km/h (2 Bft) W-SW 247 6,6 C 7,9 C
25.12.2012 14:31 9,2 C 84 % 998,6 hPa 0,0 l/m 8,6 km/h (2 Bft) W 270 6,6 C 7,9 C
25.12.2012 14:36 9,2 C 84 % 998,6 hPa 0,0 l/m 8,3 km/h (2 Bft) W 270 6,6 C 8,0 C
25.12.2012 14:41 9,2 C 84 % 998,6 hPa 0,0 l/m 12,6 km/h (3 Bft) W-SW 247 6,6 C 7,3 C
25.12.2012 14:46 9,2 C 84 % 998,7 hPa 0,0 l/m 13,7 km/h (3 Bft) W-NW 292 6,6 C 7,1 C
25.12.2012 14:51 9,1 C 84 % 998,7 hPa 0,0 l/m 12,2 km/h (2 Bft) W 270 6,5 C 7,2 C
25.12.2012 14:56 9,2 C 84 % 998,7 hPa 0,0 l/m 21,6 km/h (4 Bft) W 270 6,6 C 6,2 C
25.12.2012 15:01 9,2 C 84 % 998,7 hPa 0,0 l/m 13,7 km/h (3 Bft) W-SW 247 6,6 C 7,1 C
25.12.2012 15:06 9,1 C 84 % 998,8 hPa 0,0 l/m 13,3 km/h (3 Bft) W 270 6,5 C 7,0 C
25.12.2012 15:11 9,1 C 84 % 998,8 hPa 0,0 l/m 18,4 km/h (3 Bft) W-SW 247 6,5 C 6,4 C
25.12.2012 15:16 9,1 C 84 % 999,0 hPa 0,0 l/m 25,2 km/h (4 Bft) W 270 6,5 C 5,8 C
25.12.2012 15:21 9,1 C 84 % 998,8 hPa 0,0 l/m 21,2 km/h (4 Bft) W-SW 247 6,5 C 6,1 C
25.12.2012 15:26 9,0 C 84 % 999,1 hPa 0,0 l/m 10,8 km/h (2 Bft) W 270 6,4 C 7,3 C
25.12.2012 15:31 9,0 C 84 % 999,1 hPa 0,0 l/m 10,4 km/h (2 Bft) W 270 6,4 C 7,4 C
25.12.2012 15:36 9,0 C 84 % 999,3 hPa 0,0 l/m 4,7 km/h (1 Bft) W-SW 247 6,4 C 8,7 C
25.12.2012 15:41 9,0 C 84 % 999,4 hPa 0,0 l/m 10,8 km/h (2 Bft) W-SW 247 6,4 C 7,3 C
25.12.2012 15:46 8,9 C 84 % 999,3 hPa 0,0 l/m 4,0 km/h (1 Bft) W 270 6,3 C 8,9 C
25.12.2012 15:51 9,0 C 84 % 999,5 hPa 0,0 l/m 9,7 km/h (2 Bft) W-SW 247 6,4 C 7,5 C
25.12.2012 15:56 8,9 C 84 % 999,8 hPa 0,0 l/m 19,1 km/h (3 Bft) W-SW 247 6,3 C 6,1 C
25.12.2012 16:01 8,9 C 84 % 999,7 hPa 0,0 l/m 8,3 km/h (2 Bft) W-SW 247 6,3 C 7,7 C
25.12.2012 16:06 8,9 C 84 % 999,8 hPa 0,0 l/m 7,2 km/h (2 Bft) NW 315 6,3 C 7,9 C
25.12.2012 16:11 8,9 C 84 % 999,9 hPa 0,0 l/m 9,4 km/h (2 Bft) W-SW 247 6,3 C 7,4 C
25.12.2012 16:16 8,8 C 84 % 999,8 hPa 0,0 l/m 20,9 km/h (4 Bft) W-SW 247 6,2 C 5,8 C
25.12.2012 16:21 8,7 C 84 % 1000,0 hPa 0,0 l/m 9,7 km/h (2 Bft) W 270 6,2 C 7,1 C
25.12.2012 16:26 8,6 C 85 % 1000,1 hPa 0,0 l/m 19,8 km/h (3 Bft) W 270 6,2 C 5,6 C
25.12.2012 16:31 8,6 C 85 % 1000,4 hPa 0,0 l/m 8,6 km/h (2 Bft) W 270 6,2 C 7,2 C
25.12.2012 16:36 8,6 C 85 % 1000,4 hPa 0,0 l/m 15,1 km/h (3 Bft) W-SW 247 6,2 C 6,2 C
25.12.2012 16:41 8,5 C 85 % 1000,5 hPa 0,0 l/m 27,4 km/h (4 Bft) W-SW 247 6,1 C 4,8 C
25.12.2012 16:46 8,5 C 85 % 1000,5 hPa 0,0 l/m 22,0 km/h (4 Bft) W-SW 247 6,1 C 5,3 C
25.12.2012 16:51 8,5 C 84 % 1000,5 hPa 0,0 l/m 23,4 km/h (4 Bft) W 270 6,0 C 5,2 C
25.12.2012 16:56 8,4 C 84 % 1000,5 hPa 0,0 l/m 17,3 km/h (3 Bft) W-SW 247 5,9 C 5,7 C
25.12.2012 17:01 8,3 C 84 % 1000,6 hPa 0,0 l/m 11,9 km/h (2 Bft) W-SW 247 5,8 C 6,3 C
25.12.2012 17:06 8,2 C 84 % 1000,8 hPa 0,0 l/m 13,7 km/h (3 Bft) W-SW 247 5,7 C 5,9 C
25.12.2012 17:11 8,1 C 85 % 1000,9 hPa 0,0 l/m 7,6 km/h (2 Bft) W-SW 247 5,7 C 6,9 C
25.12.2012 17:16 7,9 C 85 % 1001,1 hPa 0,0 l/m 7,6 km/h (2 Bft) W-SW 247 5,5 C 6,6 C
25.12.2012 17:21 7,9 C 85 % 1001,1 hPa 0,0 l/m 15,8 km/h (3 Bft) W 270 5,5 C 5,2 C
25.12.2012 17:26 7,8 C 85 % 1001,1 hPa 0,0 l/m 13,3 km/h (3 Bft) W-SW 247 5,4 C 5,4 C
25.12.2012 17:31 7,8 C 85 % 1001,2 hPa 0,0 l/m 15,1 km/h (3 Bft) W-SW 247 5,4 C 5,2 C
25.12.2012 17:36 7,8 C 86 % 1001,1 hPa 0,0 l/m 14,8 km/h (3 Bft) W 270 5,6 C 5,2 C
25.12.2012 17:41 7,6 C 86 % 1001,1 hPa 0,0 l/m 4,0 km/h (1 Bft) W-SW 247 5,4 C 7,6 C
25.12.2012 17:46 7,6 C 85 % 1001,0 hPa 0,0 l/m 6,1 km/h (2 Bft) W-SW 247 5,2 C 6,7 C
25.12.2012 17:51 7,6 C 85 % 1001,0 hPa 0,0 l/m 4,3 km/h (1 Bft) SW 225 5,2 C 7,6 C
25.12.2012 17:56 7,5 C 85 % 1001,0 hPa 0,0 l/m 7,2 km/h (2 Bft) W-SW 247 5,1 C 6,3 C
25.12.2012 18:01 7,5 C 86 % 1001,0 hPa 0,0 l/m 3,6 km/h (1 Bft) S-SW 202 5,3 C 7,5 C
25.12.2012 18:06 7,4 C 86 % 1001,2 hPa 0,0 l/m 5,0 km/h (1 Bft) SW 225 5,2 C 6,8 C
25.12.2012 18:11 7,4 C 86 % 1001,3 hPa 0,0 l/m 7,9 km/h (2 Bft) W-SW 247 5,2 C 6,0 C
25.12.2012 18:16 7,4 C 87 % 1001,4 hPa 0,0 l/m 7,2 km/h (2 Bft) W-SW 247 5,4 C 6,1 C
25.12.2012 18:21 7,4 C 87 % 1001,4 hPa 0,0 l/m 4,0 km/h (1 Bft) W-SW 247 5,4 C 7,4 C
25.12.2012 18:26 7,3 C 87 % 1001,3 hPa 0,0 l/m 5,4 km/h (1 Bft) SW 225 5,3 C 6,6 C
25.12.2012 18:31 7,3 C 87 % 1001,4 hPa 0,0 l/m 9,0 km/h (2 Bft) SW 225 5,3 C 5,6 C
25.12.2012 18:36 7,2 C 87 % 1001,4 hPa 0,0 l/m 5,8 km/h (2 Bft) SW 225 5,2 C 6,3 C
25.12.2012 18:41 7,2 C 87 % 1001,4 hPa 0,0 l/m 10,1 km/h (2 Bft) W-SW 247 5,2 C 5,3 C
25.12.2012 18:46 7,1 C 88 % 1001,5 hPa 0,0 l/m 8,3 km/h (2 Bft) SW 225 5,2 C 5,5 C
25.12.2012 18:51 7,1 C 88 % 1001,3 hPa 0,0 l/m 2,5 km/h (1 Bft) S 180 5,2 C 7,1 C
25.12.2012 18:56 7,1 C 88 % 1001,5 hPa 0,0 l/m 10,8 km/h (2 Bft) W-SW 247 5,2 C 5,0 C
25.12.2012 19:01 7,1 C 88 % 1001,5 hPa 0,0 l/m 4,7 km/h (1 Bft) S-SW 202 5,2 C 6,6 C
25.12.2012 19:06 7,1 C 88 % 1001,4 hPa 0,0 l/m 3,6 km/h (1 Bft) S 180 5,2 C 7,1 C
25.12.2012 19:11 7,0 C 88 % 1001,4 hPa 0,0 l/m 6,5 km/h (2 Bft) SW 225 5,2 C 5,9 C
25.12.2012 19:16 6,9 C 88 % 1001,2 hPa 0,0 l/m 4,3 km/h (1 Bft) S-SW 202 5,1 C 6,9 C
25.12.2012 19:21 6,9 C 88 % 1001,5 hPa 0,0 l/m 1,4 km/h (1 Bft) S-SW 202 5,1 C 6,9 C
25.12.2012 19:26 6,9 C 89 % 1001,3 hPa 0,0 l/m 5,8 km/h (2 Bft) S-SW 202 5,2 C 6,0 C
25.12.2012 19:31 6,9 C 89 % 1001,5 hPa 0,0 l/m 5,0 km/h (1 Bft) SW 225 5,2 C 6,2 C
25.12.2012 19:36 6,9 C 89 % 1001,4 hPa 0,0 l/m 0,0 km/h (0 Bft) S-SW 202 5,2 C 6,9 C
25.12.2012 19:41 6,8 C 89 % 1001,2 hPa 0,0 l/m 3,6 km/h (1 Bft) S-SO 157 5,1 C 6,8 C
25.12.2012 19:46 6,8 C 89 % 1001,3 hPa 0,0 l/m 5,8 km/h (2 Bft) S 180 5,1 C 5,9 C
25.12.2012 19:51 6,6 C 89 % 1001,2 hPa 0,0 l/m 0,0 km/h (0 Bft) S 180 4,9 C 6,6 C
25.12.2012 19:56 6,6 C 89 % 1001,4 hPa 0,0 l/m 2,2 km/h (1 Bft) S 180 4,9 C 6,6 C
25.12.2012 20:01 6,5 C 89 % 1001,0 hPa 0,0 l/m 4,0 km/h (1 Bft) S 180 4,8 C 6,5 C
25.12.2012 20:06 6,4 C 89 % 1001,2 hPa 0,0 l/m 3,6 km/h (1 Bft) S-SW 202 4,7 C 6,4 C
25.12.2012 20:11 6,4 C 89 % 1001,2 hPa 0,0 l/m 3,6 km/h (1 Bft) S-SW 202 4,7 C 6,4 C
25.12.2012 20:16 6,4 C 89 % 1001,1 hPa 0,0 l/m 7,2 km/h (2 Bft) SW 225 4,7 C 5,0 C
25.12.2012 20:21 6,4 C 89 % 1001,2 hPa 0,0 l/m 9,4 km/h (2 Bft) SW 225 4,7 C 4,5 C
25.12.2012 20:26 6,4 C 89 % 1001,3 hPa 0,0 l/m 7,6 km/h (2 Bft) SW 225 4,7 C 4,9 C
25.12.2012 20:31 6,4 C 89 % 1001,0 hPa 0,0 l/m 5,4 km/h (1 Bft) S-SO 157 4,7 C 5,5 C
25.12.2012 20:36 6,4 C 89 % 1001,1 hPa 0,0 l/m 5,4 km/h (1 Bft) SW 225 4,7 C 5,5 C
25.12.2012 20:41 6,4 C 89 % 1001,2 hPa 0,0 l/m 16,6 km/h (3 Bft) S 180 4,7 C 3,3 C
25.12.2012 20:46 6,4 C 88 % 1000,9 hPa 0,0 l/m 12,6 km/h (3 Bft) W-SW 247 4,6 C 3,8 C
25.12.2012 20:51 6,4 C 88 % 1000,9 hPa 0,0 l/m 9,0 km/h (2 Bft) S-SW 202 4,6 C 4,5 C
25.12.2012 20:56 6,4 C 88 % 1001,0 hPa 0,0 l/m 10,8 km/h (2 Bft) S-SW 202 4,6 C 4,2 C
25.12.2012 21:01 6,4 C 88 % 1000,9 hPa 0,0 l/m 7,9 km/h (2 Bft) S-SW 202 4,6 C 4,8 C
25.12.2012 21:06 6,4 C 88 % 1000,8 hPa 0,0 l/m 6,1 km/h (2 Bft) W-SW 247 4,6 C 5,3 C
25.12.2012 21:11 6,4 C 88 % 1000,7 hPa 0,0 l/m 27,4 km/h (4 Bft) S-SW 202 4,6 C 2,1 C
25.12.2012 21:16 6,3 C 87 % 1000,8 hPa 0,0 l/m 15,8 km/h (3 Bft) SW 225 4,3 C 3,2 C
25.12.2012 21:21 6,3 C 87 % 1000,9 hPa 0,0 l/m 23,4 km/h (4 Bft) W-SW 247 4,3 C 2,3 C
25.12.2012 21:26 6,3 C 87 % 1001,0 hPa 0,0 l/m 20,5 km/h (4 Bft) S-SO 157 4,3 C 2,7 C
25.12.2012 21:31 6,3 C 87 % 1000,9 hPa 0,0 l/m 10,8 km/h (2 Bft) S 180 4,3 C 4,1 C
25.12.2012 21:36 6,3 C 87 % 1000,9 hPa 0,0 l/m 6,8 km/h (2 Bft) S 180 4,3 C 5,0 C
25.12.2012 21:41 6,3 C 87 % 1001,0 hPa 0,0 l/m 11,2 km/h (2 Bft) S-SW 202 4,3 C 4,0 C
25.12.2012 21:46 6,2 C 87 % 1000,8 hPa 0,0 l/m 13,0 km/h (3 Bft) S-SW 202 4,2 C 3,5 C
25.12.2012 21:51 6,2 C 87 % 1000,8 hPa 0,0 l/m 4,3 km/h (1 Bft) S 180 4,2 C 6,2 C
25.12.2012 21:56 6,1 C 87 % 1000,8 hPa 0,0 l/m 7,6 km/h (2 Bft) S 180 4,1 C 4,5 C
25.12.2012 22:01 6,1 C 87 % 1000,6 hPa 0,0 l/m 10,8 km/h (2 Bft) SW 225 4,1 C 3,8 C
25.12.2012 22:06 6,1 C 87 % 1000,7 hPa 0,0 l/m 6,1 km/h (2 Bft) S-SW 202 4,1 C 5,0 C
25.12.2012 22:11 6,1 C 87 % 1000,6 hPa 0,0 l/m 14,4 km/h (3 Bft) S-SW 202 4,1 C 3,2 C
25.12.2012 22:16 6,1 C 87 % 1000,5 hPa 0,0 l/m 7,6 km/h (2 Bft) W-SW 247 4,1 C 4,5 C
25.12.2012 22:21 6,1 C 87 % 1000,5 hPa 0,0 l/m 4,0 km/h (1 Bft) S-SW 202 4,1 C 6,1 C
25.12.2012 22:26 6,1 C 87 % 1000,5 hPa 0,0 l/m 13,3 km/h (3 Bft) S 180 4,1 C 3,4 C
25.12.2012 22:31 6,1 C 87 % 1000,6 hPa 0,0 l/m 25,6 km/h (4 Bft) S-SW 202 4,1 C 1,9 C
25.12.2012 22:36 6,2 C 87 % 1000,6 hPa 0,0 l/m 11,9 km/h (2 Bft) S-SW 202 4,2 C 3,7 C
25.12.2012 22:41 6,3 C 87 % 1000,4 hPa 0,0 l/m 21,2 km/h (4 Bft) W-SW 247 4,3 C 2,6 C
25.12.2012 22:46 6,3 C 87 % 1000,6 hPa 0,0 l/m 17,3 km/h (3 Bft) S 180 4,3 C 3,0 C
25.12.2012 22:51 6,4 C 87 % 1000,5 hPa 0,0 l/m 11,2 km/h (2 Bft) S-SW 202 4,4 C 4,1 C
25.12.2012 22:56 6,4 C 87 % 1000,6 hPa 0,0 l/m 18,7 km/h (3 Bft) S-SW 202 4,4 C 3,0 C
25.12.2012 23:01 6,4 C 87 % 1000,8 hPa 0,0 l/m 8,3 km/h (2 Bft) S-SW 202 4,4 C 4,7 C
25.12.2012 23:06 6,4 C 87 % 1000,7 hPa 0,0 l/m 12,2 km/h (2 Bft) S 180 4,4 C 3,9 C
25.12.2012 23:11 6,5 C 87 % 1000,5 hPa 0,0 l/m 10,1 km/h (2 Bft) S 180 4,5 C 4,4 C
25.12.2012 23:16 6,5 C 87 % 1000,7 hPa 0,0 l/m 14,0 km/h (3 Bft) S-SW 202 4,5 C 3,7 C
25.12.2012 23:21 6,5 C 87 % 1000,6 hPa 0,0 l/m 10,1 km/h (2 Bft) S-SW 202 4,5 C 4,4 C
25.12.2012 23:26 6,6 C 87 % 1000,8 hPa 0,0 l/m 14,8 km/h (3 Bft) W-SW 247 4,6 C 3,8 C
25.12.2012 23:31 6,7 C 87 % 1001,0 hPa 0,0 l/m 9,7 km/h (2 Bft) S 180 4,7 C 4,8 C
25.12.2012 23:36 6,7 C 87 % 1000,7 hPa 0,0 l/m 7,9 km/h (2 Bft) W-SW 247 4,7 C 5,2 C
25.12.2012 23:41 6,7 C 87 % 1000,8 hPa 0,0 l/m 14,0 km/h (3 Bft) S-SW 202 4,7 C 4,0 C
25.12.2012 23:46 6,7 C 87 % 1000,9 hPa 0,0 l/m 13,7 km/h (3 Bft) S-SO 157 4,7 C 4,0 C
25.12.2012 23:51 6,8 C 87 % 1000,9 hPa 0,0 l/m 20,9 km/h (4 Bft) S-SW 202 4,8 C 3,2 C
25.12.2012 23:56 6,8 C 87 % 1000,8 hPa 0,0 l/m 23,0 km/h (4 Bft) S-SW 202 4,8 C 3,0 C
_ Min-Zeit 21:56 11:16 08:51 - 19:36 - - 21:56 22:31
Minimum _ 6,1 C 76 % 996,8 hPa - 0,0 km/h (0 Bft) - - 4,1 C 1,9 C
_ Max-Zeit 12:01 00:01 18:46 00:01 12:56 - - 00:16 12:01
Maximum _ 10,8 C 96 % 1001,5 hPa 0,0 l/m 34,2 km/h
W (5 Bft)
- - 7,5 C 10,8 C
Durchschnitt _ 8,3 C 85 % 999,2 hPa #0,0 l/m 12,0 km/h (2 Bft) W-SW - 6,0 C 6,7 C
(c) by David Heller